AZU2574 SBJP-SBUL

Flight info

Callsign AZU2574
Flight time 2h 41m
Altitude 38000
Route KUKES UZ59 VUSTI DCT MUBAP DCT ALETA DCT AZOIC
Aircraft A20N/M-SDE2E3FGHIRWXY/LB1

Departure

Time 2026-04-25 09:46
Airport Presidente Castro Pinto International Airport (SBJP)

Arrival

Time 2026-04-25 12:27
Airport Ten. Cel. Aviador César Bombonato Airport (SBUL)
Time Latitude Longitude Altitude Speed Heading
2026-04-25 09:17 -7.14588 -34.94991 219 ft 0 kts 349°
2026-04-25 09:35 -7.14598 -34.94989 226 ft 3 kts 20°
2026-04-25 09:36 -7.14612 -34.95000 226 ft 3 kts 81°
2026-04-25 09:36 -7.14613 -34.95003 225 ft 0 kts 96°
2026-04-25 09:39 -7.14608 -34.94999 224 ft 1 kts 24°
2026-04-25 09:40 -7.14610 -34.95052 223 ft 3 kts 188°
2026-04-25 09:40 -7.14645 -34.95036 222 ft 8 kts 142°
2026-04-25 09:40 -7.14708 -34.95003 222 ft 11 kts 190°
2026-04-25 09:40 -7.14743 -34.95030 223 ft 5 kts 225°
2026-04-25 09:41 -7.14758 -34.95044 220 ft 0 kts 225°
2026-04-25 09:41 -7.14759 -34.95046 220 ft 2 kts 225°
2026-04-25 09:41 -7.14790 -34.95079 221 ft 9 kts 237°
2026-04-25 09:42 -7.14757 -34.95161 221 ft 19 kts 315°
2026-04-25 09:42 -7.14656 -34.95262 219 ft 21 kts 315°
2026-04-25 09:42 -7.14555 -34.95364 223 ft 20 kts 315°
2026-04-25 09:42 -7.14456 -34.95465 219 ft 20 kts 315°
2026-04-25 09:43 -7.14357 -34.95563 224 ft 19 kts 315°
2026-04-25 09:43 -7.14263 -34.95655 222 ft 18 kts 315°
2026-04-25 09:43 -7.14174 -34.95743 222 ft 18 kts 315°
2026-04-25 09:43 -7.14076 -34.95805 225 ft 16 kts 341°
2026-04-25 09:44 -7.14042 -34.95854 224 ft 6 kts 211°
2026-04-25 09:44 -7.14090 -34.95828 224 ft 7 kts 136°
2026-04-25 09:44 -7.14091 -34.95827 224 ft 0 kts 136°
2026-04-25 09:45 -7.14151 -34.95769 223 ft 42 kts 136°
2026-04-25 09:45 -7.14559 -34.95363 223 ft 124 kts 135°
2026-04-25 09:45 -7.15339 -34.94597 387 ft 178 kts 135°
2026-04-25 09:46 -7.15946 -34.93999 758 ft 187 kts 137°
2026-04-25 09:46 -7.16870 -34.93073 1668 ft 194 kts 136°
2026-04-25 09:46 -7.17900 -34.92028 2171 ft 224 kts 136°
2026-04-25 09:46 -7.19424 -34.90483 3023 ft 242 kts 135°
2026-04-25 09:47 -7.20231 -34.89664 3536 ft 246 kts 135°
2026-04-25 09:47 -7.21449 -34.88430 4354 ft 250 kts 135°
2026-04-25 09:47 -7.22686 -34.87179 5175 ft 254 kts 134°
2026-04-25 09:47 -7.23943 -34.85908 5974 ft 258 kts 134°
2026-04-25 09:48 -7.25218 -34.84621 6767 ft 261 kts 134°
2026-04-25 09:48 -7.26511 -34.83316 7518 ft 265 kts 134°
2026-04-25 09:48 -7.27823 -34.81992 8255 ft 269 kts 134°
2026-04-25 09:48 -7.29153 -34.80651 8757 ft 272 kts 134°
2026-04-25 09:49 -7.30496 -34.79296 8932 ft 274 kts 134°
2026-04-25 09:49 -7.31846 -34.77934 8951 ft 275 kts 134°
2026-04-25 09:49 -7.33202 -34.76566 8951 ft 276 kts 134°
2026-04-25 09:49 -7.34560 -34.75195 8959 ft 276 kts 134°
2026-04-25 09:50 -7.35916 -34.73827 8960 ft 276 kts 134°
2026-04-25 09:50 -7.37271 -34.72459 8956 ft 275 kts 134°
2026-04-25 09:50 -7.38625 -34.71092 8956 ft 276 kts 134°
2026-04-25 09:50 -7.39979 -34.69726 8953 ft 275 kts 134°
2026-04-25 09:51 -7.41334 -34.68357 8965 ft 276 kts 134°
2026-04-25 09:51 -7.42693 -34.66986 8958 ft 277 kts 134°
2026-04-25 09:51 -7.44051 -34.65615 8964 ft 277 kts 134°
2026-04-25 09:51 -7.45411 -34.64242 8956 ft 276 kts 134°
2026-04-25 09:52 -7.46768 -34.62871 8954 ft 276 kts 135°
2026-04-25 09:52 -7.48236 -34.61631 8978 ft 277 kts 148°
2026-04-25 09:52 -7.50068 -34.60989 9382 ft 284 kts 169°
2026-04-25 09:52 -7.52044 -34.60810 10187 ft 287 kts 174°
2026-04-25 09:53 -7.54098 -34.60710 10594 ft 305 kts 175°
2026-04-25 09:53 -7.56250 -34.60618 10937 ft 322 kts 175°
2026-04-25 09:53 -7.58555 -34.60519 11458 ft 331 kts 175°
2026-04-25 09:53 -7.60870 -34.60417 12105 ft 336 kts 175°
2026-04-25 09:54 -7.63214 -34.60312 12798 ft 339 kts 175°
2026-04-25 09:54 -7.65592 -34.60204 13444 ft 344 kts 175°
2026-04-25 09:54 -7.68003 -34.60303 14077 ft 351 kts 187°
2026-04-25 09:54 -7.70303 -34.61084 14672 ft 360 kts 206°
2026-04-25 09:55 -7.72286 -34.62656 15274 ft 367 kts 225°
2026-04-25 09:55 -7.73995 -34.64585 15875 ft 372 kts 229°
2026-04-25 09:55 -7.75667 -34.66591 16455 ft 376 kts 229°
2026-04-25 09:55 -7.77352 -34.68619 17069 ft 379 kts 229°
2026-04-25 09:56 -7.79056 -34.70657 17678 ft 381 kts 229°
2026-04-25 09:56 -7.80776 -34.72705 18226 ft 386 kts 229°
2026-04-25 09:56 -7.82531 -34.74787 18603 ft 392 kts 229°
2026-04-25 09:56 -7.84305 -34.76888 19065 ft 394 kts 229°
2026-04-25 09:57 -7.86089 -34.79000 19523 ft 397 kts 229°
2026-04-25 09:57 -7.87890 -34.81126 19933 ft 401 kts 228°
2026-04-25 09:57 -7.89764 -34.83219 20366 ft 403 kts 226°
2026-04-25 09:57 -7.91676 -34.85293 20837 ft 405 kts 226°
2026-04-25 09:58 -7.93612 -34.87384 21261 ft 409 kts 226°
2026-04-25 09:58 -7.95559 -34.89487 21717 ft 412 kts 226°
2026-04-25 09:58 -7.97520 -34.91609 22157 ft 415 kts 226°
2026-04-25 09:58 -7.99495 -34.93747 22593 ft 418 kts 226°
2026-04-25 09:59 -8.01487 -34.95904 23026 ft 422 kts 226°
2026-04-25 09:59 -8.03493 -34.98077 23460 ft 425 kts 226°
2026-04-25 09:59 -8.05514 -35.00267 23827 ft 428 kts 226°
2026-04-25 09:59 -8.07462 -35.02558 24204 ft 432 kts 232°
2026-04-25 10:00 -8.09050 -35.05146 24559 ft 438 kts 242°
2026-04-25 10:00 -8.10323 -35.07951 24939 ft 441 kts 245°
2026-04-25 10:00 -8.11520 -35.10805 25364 ft 443 kts 246°
2026-04-25 10:00 -8.12712 -35.13675 25779 ft 445 kts 246°
2026-04-25 10:01 -8.13912 -35.16556 26194 ft 446 kts 246°
2026-04-25 10:01 -8.15122 -35.19450 26599 ft 448 kts 246°
2026-04-25 10:01 -8.16339 -35.22357 26997 ft 450 kts 246°
2026-04-25 10:01 -8.17563 -35.25276 27386 ft 453 kts 246°
2026-04-25 10:02 -8.18793 -35.28209 27749 ft 455 kts 246°
2026-04-25 10:02 -8.20029 -35.31154 28119 ft 457 kts 246°
2026-04-25 10:02 -8.21270 -35.34113 28491 ft 459 kts 246°
2026-04-25 10:02 -8.22518 -35.37088 28854 ft 461 kts 246°
2026-04-25 10:03 -8.23771 -35.40076 29202 ft 463 kts 246°
2026-04-25 10:03 -8.25028 -35.43073 29546 ft 465 kts 246°
2026-04-25 10:03 -8.26292 -35.46088 29897 ft 467 kts 246°
2026-04-25 10:03 -8.27560 -35.49113 30210 ft 469 kts 246°
2026-04-25 10:04 -8.28833 -35.52151 30518 ft 470 kts 246°
2026-04-25 10:04 -8.30105 -35.55188 30829 ft 471 kts 246°
2026-04-25 10:04 -8.31383 -35.58240 31141 ft 472 kts 246°
2026-04-25 10:04 -8.32658 -35.61286 31551 ft 470 kts 246°
2026-04-25 10:05 -8.33928 -35.64318 31965 ft 468 kts 247°
2026-04-25 10:05 -8.35175 -35.67299 32378 ft 466 kts 247°
2026-04-25 10:05 -8.36433 -35.70304 32779 ft 464 kts 247°
2026-04-25 10:05 -8.37687 -35.73304 33159 ft 463 kts 248°
2026-04-25 10:06 -8.38939 -35.76295 33544 ft 462 kts 248°
2026-04-25 10:06 -8.40188 -35.79283 33832 ft 463 kts 248°
2026-04-25 10:06 -8.41438 -35.82274 34145 ft 462 kts 248°
2026-04-25 10:06 -8.42686 -35.85259 34441 ft 461 kts 248°
2026-04-25 10:07 -8.43933 -35.88245 34717 ft 461 kts 248°
2026-04-25 10:07 -8.45179 -35.91227 34995 ft 461 kts 248°
2026-04-25 10:07 -8.46422 -35.94204 35261 ft 460 kts 248°
2026-04-25 10:07 -8.47665 -35.97181 35521 ft 460 kts 248°
2026-04-25 10:08 -8.48907 -36.00158 35776 ft 460 kts 248°
2026-04-25 10:08 -8.50150 -36.03135 35985 ft 461 kts 248°
2026-04-25 10:08 -8.51394 -36.06118 36196 ft 461 kts 248°
2026-04-25 10:08 -8.52639 -36.09103 36440 ft 461 kts 248°
2026-04-25 10:09 -8.53883 -36.12086 36689 ft 460 kts 248°
2026-04-25 10:09 -8.55123 -36.15061 36938 ft 460 kts 247°
2026-04-25 10:09 -8.56364 -36.18038 37158 ft 459 kts 247°
2026-04-25 10:09 -8.57603 -36.21012 37422 ft 458 kts 248°
2026-04-25 10:10 -8.58836 -36.23971 37696 ft 456 kts 248°
2026-04-25 10:10 -8.60067 -36.26928 37916 ft 456 kts 248°
2026-04-25 10:10 -8.61299 -36.29887 38035 ft 457 kts 248°
2026-04-25 10:10 -8.62531 -36.32847 38028 ft 457 kts 248°
2026-04-25 10:11 -8.64992 -36.38761 38034 ft 456 kts 248°
2026-04-25 10:11 -8.67449 -36.44669 38036 ft 456 kts 248°
2026-04-25 10:12 -8.69904 -36.50576 38037 ft 456 kts 248°
2026-04-25 10:13 -8.73587 -36.59440 38032 ft 456 kts 248°
2026-04-25 10:13 -8.76040 -36.65348 38032 ft 456 kts 248°
2026-04-25 10:14 -8.78491 -36.71256 38033 ft 456 kts 248°
2026-04-25 10:14 -8.80943 -36.77168 38029 ft 456 kts 248°
2026-04-25 10:15 -8.83386 -36.83062 38035 ft 453 kts 248°
2026-04-25 10:15 -8.85818 -36.88931 38030 ft 453 kts 248°
2026-04-25 10:16 -8.88249 -36.94802 38025 ft 453 kts 248°
2026-04-25 10:16 -8.90680 -37.00676 38031 ft 453 kts 248°
2026-04-25 10:17 -8.93108 -37.06545 38021 ft 453 kts 248°
2026-04-25 10:17 -8.95537 -37.12418 38020 ft 453 kts 248°
2026-04-25 10:18 -8.97964 -37.18292 38025 ft 453 kts 248°
2026-04-25 10:18 -9.00393 -37.24165 38025 ft 453 kts 246°
2026-04-25 10:19 -9.03437 -37.29733 38015 ft 453 kts 237°
2026-04-25 10:19 -9.06898 -37.35055 38018 ft 453 kts 236°
2026-04-25 10:20 -9.10421 -37.40340 38019 ft 453 kts 236°
2026-04-25 10:20 -9.13920 -37.45637 38026 ft 453 kts 236°
2026-04-25 10:21 -9.17379 -37.50917 38023 ft 453 kts 237°
2026-04-25 10:21 -9.20852 -37.56237 38025 ft 453 kts 237°
2026-04-25 10:22 -9.24324 -37.61560 38028 ft 453 kts 237°
2026-04-25 10:22 -9.27795 -37.66880 38029 ft 453 kts 237°
2026-04-25 10:23 -9.31267 -37.72202 38021 ft 453 kts 237°
2026-04-25 10:23 -9.34742 -37.77532 38026 ft 454 kts 237°
2026-04-25 10:24 -9.38216 -37.82862 38023 ft 454 kts 237°
2026-04-25 10:24 -9.41692 -37.88197 38025 ft 454 kts 237°
2026-04-25 10:25 -9.45163 -37.93528 38017 ft 454 kts 237°
2026-04-25 10:25 -9.48636 -37.98865 38018 ft 453 kts 236°
2026-04-25 10:26 -9.52104 -38.04195 38022 ft 453 kts 236°
2026-04-25 10:26 -9.55567 -38.09520 38019 ft 452 kts 237°
2026-04-25 10:27 -9.59027 -38.14842 38023 ft 452 kts 237°
2026-04-25 10:27 -9.62486 -38.20165 38024 ft 452 kts 237°
2026-04-25 10:28 -9.65954 -38.25506 38024 ft 454 kts 237°
2026-04-25 10:28 -9.69426 -38.30855 38026 ft 454 kts 237°
2026-04-25 10:29 -9.72875 -38.36169 38024 ft 454 kts 237°
2026-04-25 10:29 -9.76747 -38.41214 38033 ft 454 kts 226°
2026-04-25 10:30 -9.81239 -38.45716 38037 ft 454 kts 224°
2026-04-25 10:30 -9.85839 -38.50103 38041 ft 454 kts 223°
2026-04-25 10:31 -9.90449 -38.54477 38037 ft 453 kts 224°
2026-04-25 10:31 -9.95043 -38.58860 38028 ft 454 kts 223°
2026-04-25 10:32 -9.99635 -38.63257 38038 ft 454 kts 224°
2026-04-25 10:32 -10.04222 -38.67656 38039 ft 453 kts 224°
2026-04-25 10:33 -10.08805 -38.72052 38043 ft 454 kts 224°
2026-04-25 10:33 -10.13392 -38.76454 38046 ft 454 kts 224°
2026-04-25 10:34 -10.17980 -38.80858 38042 ft 454 kts 224°
2026-04-25 10:34 -10.22568 -38.85262 38042 ft 454 kts 224°
2026-04-25 10:35 -10.27155 -38.89669 38044 ft 454 kts 224°
2026-04-25 10:35 -10.30965 -38.93331 38040 ft 454 kts 224°
2026-04-25 10:36 -10.36313 -38.98472 38051 ft 453 kts 224°
2026-04-25 10:36 -10.40115 -39.02128 38049 ft 452 kts 224°
2026-04-25 10:37 -10.44684 -39.06525 38038 ft 452 kts 224°
2026-04-25 10:37 -10.49253 -39.10923 38047 ft 453 kts 224°
2026-04-25 10:38 -10.53821 -39.15322 38045 ft 453 kts 224°
2026-04-25 10:38 -10.58396 -39.19730 38046 ft 452 kts 224°
2026-04-25 10:39 -10.62959 -39.24127 38045 ft 452 kts 224°
2026-04-25 10:39 -10.67519 -39.28524 38042 ft 452 kts 224°
2026-04-25 10:40 -10.72082 -39.32927 38044 ft 452 kts 224°
2026-04-25 10:40 -10.76641 -39.37326 38045 ft 452 kts 224°
2026-04-25 10:41 -10.81203 -39.41731 38049 ft 452 kts 223°
2026-04-25 10:41 -10.85764 -39.46136 38042 ft 452 kts 223°
2026-04-25 10:42 -10.90297 -39.50516 38046 ft 452 kts 223°
2026-04-25 10:42 -10.94858 -39.54926 38044 ft 452 kts 223°
2026-04-25 10:43 -10.99419 -39.59338 38040 ft 452 kts 223°
2026-04-25 10:43 -11.03978 -39.63749 38052 ft 452 kts 223°
2026-04-25 10:44 -11.08538 -39.68164 38047 ft 452 kts 223°
2026-04-25 10:44 -11.13098 -39.72580 38054 ft 452 kts 223°
2026-04-25 10:45 -11.17659 -39.76999 38049 ft 453 kts 223°
2026-04-25 10:45 -11.22218 -39.81419 38051 ft 453 kts 222°
2026-04-25 10:46 -11.26780 -39.85843 38047 ft 453 kts 222°
2026-04-25 10:46 -11.31346 -39.90273 38053 ft 454 kts 222°
2026-04-25 10:47 -11.35919 -39.94713 38059 ft 454 kts 222°
2026-04-25 10:47 -11.40496 -39.99158 38053 ft 454 kts 222°
2026-04-25 10:48 -11.45075 -40.03607 38060 ft 454 kts 222°
2026-04-25 10:48 -11.49648 -40.08053 38069 ft 455 kts 222°
2026-04-25 10:49 -11.54198 -40.12478 38058 ft 455 kts 222°
2026-04-25 10:49 -11.58807 -40.16963 38064 ft 455 kts 222°
2026-04-25 10:50 -11.63359 -40.21394 38068 ft 455 kts 222°
2026-04-25 10:50 -11.67940 -40.25856 38069 ft 455 kts 222°
2026-04-25 10:51 -11.72525 -40.30324 38071 ft 456 kts 222°
2026-04-25 10:51 -11.77108 -40.34791 38070 ft 456 kts 221°
2026-04-25 10:52 -11.81693 -40.39263 38067 ft 456 kts 222°
2026-04-25 10:52 -11.86276 -40.43736 38072 ft 456 kts 222°
2026-04-25 10:53 -11.90858 -40.48209 38077 ft 456 kts 222°
2026-04-25 10:53 -11.95438 -40.52683 38077 ft 456 kts 222°
2026-04-25 10:54 -12.00019 -40.57160 38074 ft 456 kts 222°
2026-04-25 10:54 -12.04600 -40.61640 38075 ft 456 kts 221°
2026-04-25 10:55 -12.09179 -40.66120 38080 ft 456 kts 221°
2026-04-25 10:55 -12.13757 -40.70600 38076 ft 456 kts 221°
2026-04-25 10:56 -12.18335 -40.75083 38081 ft 456 kts 221°
2026-04-25 10:56 -12.22915 -40.79570 38081 ft 456 kts 222°
2026-04-25 10:57 -12.27461 -40.84026 38080 ft 456 kts 221°
2026-04-25 10:57 -12.32034 -40.88511 38078 ft 455 kts 221°
2026-04-25 10:58 -12.36607 -40.92998 38077 ft 455 kts 221°
2026-04-25 10:58 -12.41180 -40.97488 38080 ft 456 kts 221°
2026-04-25 10:59 -12.45750 -41.01976 38080 ft 456 kts 221°
2026-04-25 10:59 -12.50320 -41.06468 38076 ft 456 kts 221°
2026-04-25 11:00 -12.54893 -41.10964 38085 ft 456 kts 221°
2026-04-25 11:00 -12.59463 -41.15459 38084 ft 456 kts 221°
2026-04-25 11:01 -12.64032 -41.19956 38083 ft 456 kts 221°
2026-04-25 11:01 -12.68600 -41.24455 38083 ft 456 kts 221°
2026-04-25 11:02 -12.73165 -41.28953 38092 ft 456 kts 222°
2026-04-25 11:02 -12.77732 -41.33456 38094 ft 456 kts 222°
2026-04-25 11:03 -12.82301 -41.37962 38095 ft 456 kts 222°
2026-04-25 11:03 -12.86870 -41.42471 38096 ft 456 kts 222°
2026-04-25 11:04 -12.91435 -41.46978 38108 ft 456 kts 222°
2026-04-25 11:04 -12.96000 -41.51491 38105 ft 456 kts 222°
2026-04-25 11:05 -13.00561 -41.55999 38116 ft 455 kts 222°
2026-04-25 11:05 -13.05125 -41.60510 38116 ft 456 kts 222°
2026-04-25 11:06 -13.09683 -41.65020 38110 ft 456 kts 222°
2026-04-25 11:06 -13.14243 -41.69535 38110 ft 455 kts 222°
2026-04-25 11:07 -13.18800 -41.74049 38112 ft 455 kts 222°
2026-04-25 11:07 -13.23350 -41.78559 38109 ft 454 kts 222°
2026-04-25 11:08 -13.27870 -41.83042 38109 ft 455 kts 222°
2026-04-25 11:08 -13.32425 -41.87562 38101 ft 455 kts 222°
2026-04-25 11:09 -13.36976 -41.92080 38101 ft 455 kts 222°
2026-04-25 11:09 -13.41528 -41.96600 38095 ft 454 kts 222°
2026-04-25 11:10 -13.46066 -42.01111 38102 ft 454 kts 222°
2026-04-25 11:10 -13.50599 -42.05618 38095 ft 454 kts 222°
2026-04-25 11:11 -13.55140 -42.10136 38095 ft 454 kts 222°
2026-04-25 11:11 -13.59678 -42.14654 38094 ft 454 kts 222°
2026-04-25 11:12 -13.64181 -42.19205 38096 ft 454 kts 224°
2026-04-25 11:12 -13.68488 -42.23952 38096 ft 454 kts 226°
2026-04-25 11:13 -13.72740 -42.28766 38094 ft 454 kts 226°
2026-04-25 11:13 -13.76999 -42.33568 38098 ft 455 kts 225°
2026-04-25 11:14 -13.81277 -42.38360 38093 ft 454 kts 225°
2026-04-25 11:14 -13.85558 -42.43146 38096 ft 455 kts 225°
2026-04-25 11:15 -13.89843 -42.47938 38094 ft 455 kts 225°
2026-04-25 11:15 -13.94129 -42.52735 38096 ft 455 kts 225°
2026-04-25 11:16 -14.00557 -42.59936 38098 ft 455 kts 225°
2026-04-25 11:16 -14.04839 -42.64736 38084 ft 455 kts 226°
2026-04-25 11:17 -14.09122 -42.69541 38091 ft 455 kts 226°
2026-04-25 11:17 -14.13402 -42.74346 38084 ft 455 kts 226°
2026-04-25 11:18 -14.17679 -42.79149 38077 ft 455 kts 226°
2026-04-25 11:18 -14.21956 -42.83957 38079 ft 455 kts 226°
2026-04-25 11:19 -14.26239 -42.88773 38076 ft 456 kts 226°
2026-04-25 11:19 -14.30515 -42.93585 38075 ft 455 kts 226°
2026-04-25 11:20 -14.34792 -42.98399 38072 ft 455 kts 226°
2026-04-25 11:20 -14.39057 -43.03205 38071 ft 455 kts 226°
2026-04-25 11:21 -14.43330 -43.08022 38074 ft 455 kts 226°
2026-04-25 11:21 -14.47598 -43.12835 38072 ft 454 kts 226°
2026-04-25 11:22 -14.51139 -43.16832 38075 ft 453 kts 226°
2026-04-25 11:22 -14.56112 -43.22448 38075 ft 453 kts 226°
2026-04-25 11:23 -14.60334 -43.27219 38073 ft 453 kts 226°
2026-04-25 11:23 -14.64587 -43.32028 38072 ft 453 kts 226°
2026-04-25 11:24 -14.68835 -43.36834 38072 ft 453 kts 226°
2026-04-25 11:24 -14.73077 -43.41637 38073 ft 452 kts 226°
2026-04-25 11:25 -14.77314 -43.46437 38075 ft 452 kts 226°
2026-04-25 11:25 -14.81552 -43.51241 38075 ft 452 kts 226°
2026-04-25 11:26 -14.85106 -43.55272 38075 ft 453 kts 226°
2026-04-25 11:26 -14.89345 -43.60082 38075 ft 452 kts 226°
2026-04-25 11:27 -14.93569 -43.64880 38079 ft 451 kts 226°
2026-04-25 11:27 -14.97076 -43.68864 38078 ft 451 kts 226°
2026-04-25 11:28 -15.01984 -43.74444 38081 ft 451 kts 226°
2026-04-25 11:28 -15.06203 -43.79244 38081 ft 451 kts 226°
2026-04-25 11:29 -15.10423 -43.84048 38078 ft 451 kts 227°
2026-04-25 11:29 -15.14636 -43.88848 38081 ft 451 kts 227°
2026-04-25 11:30 -15.18852 -43.93654 38087 ft 451 kts 227°
2026-04-25 11:30 -15.23069 -43.98463 38086 ft 451 kts 227°
2026-04-25 11:31 -15.27279 -44.03269 38085 ft 451 kts 227°
2026-04-25 11:31 -15.31491 -44.08079 38085 ft 450 kts 227°
2026-04-25 11:32 -15.35698 -44.12888 38085 ft 450 kts 227°
2026-04-25 11:32 -15.39903 -44.17697 38088 ft 450 kts 227°
2026-04-25 11:33 -15.44066 -44.22491 38086 ft 450 kts 228°
2026-04-25 11:33 -15.48189 -44.27381 38088 ft 450 kts 228°
2026-04-25 11:34 -15.52290 -44.32287 38085 ft 450 kts 229°
2026-04-25 11:34 -15.56388 -44.37182 38088 ft 450 kts 228°
2026-04-25 11:35 -15.60492 -44.42078 38083 ft 450 kts 228°
2026-04-25 11:35 -15.64599 -44.46976 38082 ft 450 kts 229°
2026-04-25 11:36 -15.68704 -44.51875 38088 ft 450 kts 229°
2026-04-25 11:36 -15.72804 -44.56772 38081 ft 449 kts 229°
2026-04-25 11:37 -15.76899 -44.61666 38086 ft 449 kts 229°
2026-04-25 11:37 -15.80990 -44.66559 38089 ft 449 kts 229°
2026-04-25 11:38 -15.85083 -44.71457 38081 ft 449 kts 229°
2026-04-25 11:38 -15.89169 -44.76350 38088 ft 449 kts 229°
2026-04-25 11:39 -15.93254 -44.81246 38089 ft 448 kts 229°
2026-04-25 11:39 -15.97336 -44.86141 38089 ft 448 kts 229°
2026-04-25 11:40 -16.01416 -44.91037 38092 ft 448 kts 229°
2026-04-25 11:40 -16.05470 -44.95905 38091 ft 448 kts 229°
2026-04-25 11:41 -16.09574 -45.00837 38086 ft 448 kts 229°
2026-04-25 11:41 -16.13623 -45.05705 38088 ft 448 kts 229°
2026-04-25 11:42 -16.17697 -45.10608 38087 ft 448 kts 229°
2026-04-25 11:42 -16.21769 -45.15512 38086 ft 448 kts 229°
2026-04-25 11:43 -16.25843 -45.20420 38084 ft 448 kts 229°
2026-04-25 11:43 -16.29918 -45.25334 38087 ft 448 kts 229°
2026-04-25 11:44 -16.33992 -45.30249 38088 ft 449 kts 229°
2026-04-25 11:44 -16.38067 -45.35170 38086 ft 448 kts 229°
2026-04-25 11:45 -16.42137 -45.40087 38088 ft 447 kts 229°
2026-04-25 11:45 -16.46182 -45.44979 38087 ft 445 kts 229°
2026-04-25 11:46 -16.50215 -45.49859 38087 ft 444 kts 229°
2026-04-25 11:46 -16.54248 -45.54742 38086 ft 445 kts 229°
2026-04-25 11:47 -16.58279 -45.59627 38090 ft 444 kts 229°
2026-04-25 11:47 -16.62305 -45.64509 38092 ft 444 kts 229°
2026-04-25 11:48 -16.66325 -45.69386 38089 ft 443 kts 229°
2026-04-25 11:48 -16.70346 -45.74269 38087 ft 443 kts 229°
2026-04-25 11:49 -16.74365 -45.79152 38089 ft 443 kts 229°
2026-04-25 11:49 -16.78377 -45.84031 38089 ft 442 kts 229°
2026-04-25 11:50 -16.82378 -45.88899 38083 ft 442 kts 229°
2026-04-25 11:50 -16.86378 -45.93770 38083 ft 442 kts 229°
2026-04-25 11:51 -16.90374 -45.98639 38086 ft 442 kts 229°
2026-04-25 11:51 -16.94345 -46.03482 38086 ft 442 kts 229°
2026-04-25 11:52 -16.98342 -46.08359 38083 ft 442 kts 229°
2026-04-25 11:52 -17.02338 -46.13239 38080 ft 442 kts 229°
2026-04-25 11:53 -17.06333 -46.18121 38083 ft 442 kts 229°
2026-04-25 11:53 -17.10328 -46.23006 38084 ft 442 kts 229°
2026-04-25 11:54 -17.14329 -46.27902 38082 ft 443 kts 229°
2026-04-25 11:55 -17.20318 -46.35239 38084 ft 442 kts 229°
2026-04-25 11:55 -17.24311 -46.40134 38083 ft 443 kts 229°
2026-04-25 11:56 -17.28313 -46.45044 38083 ft 443 kts 229°
2026-04-25 11:56 -17.32314 -46.49957 38086 ft 443 kts 229°
2026-04-25 11:57 -17.36314 -46.54872 38082 ft 443 kts 229°
2026-04-25 11:57 -17.40313 -46.59788 38089 ft 444 kts 229°
2026-04-25 11:58 -17.44315 -46.64713 38089 ft 444 kts 229°
2026-04-25 11:58 -17.48314 -46.69638 38089 ft 444 kts 229°
2026-04-25 11:59 -17.52314 -46.74568 38093 ft 444 kts 229°
2026-04-25 11:59 -17.56306 -46.79491 38092 ft 443 kts 229°
2026-04-25 12:00 -17.62295 -46.86884 38099 ft 443 kts 229°
2026-04-25 12:01 -17.68253 -46.94246 38097 ft 443 kts 229°
2026-04-25 12:01 -17.72239 -46.99176 38097 ft 443 kts 229°
2026-04-25 12:02 -17.78224 -47.06587 38102 ft 444 kts 229°
2026-04-25 12:02 -17.82211 -47.11529 37881 ft 439 kts 229°
2026-04-25 12:03 -17.84155 -47.13940 37840 ft 427 kts 229°
2026-04-25 12:03 -17.86053 -47.16296 37520 ft 423 kts 229°
2026-04-25 12:03 -17.87959 -47.18661 36886 ft 426 kts 229°
2026-04-25 12:03 -17.89881 -47.21046 36290 ft 429 kts 229°
2026-04-25 12:04 -17.91814 -47.23446 35653 ft 432 kts 229°
2026-04-25 12:04 -17.93767 -47.25871 34967 ft 437 kts 229°
2026-04-25 12:04 -17.95740 -47.28323 34275 ft 442 kts 229°
2026-04-25 12:04 -17.97735 -47.30803 33595 ft 444 kts 229°
2026-04-25 12:05 -17.99718 -47.33269 33111 ft 440 kts 229°
2026-04-25 12:05 -18.01673 -47.35702 32602 ft 434 kts 229°
2026-04-25 12:05 -18.03617 -47.38123 32065 ft 432 kts 229°
2026-04-25 12:05 -18.05546 -47.40525 31538 ft 427 kts 229°
2026-04-25 12:06 -18.07446 -47.42892 31047 ft 422 kts 229°
2026-04-25 12:06 -18.09334 -47.45246 30526 ft 421 kts 229°
2026-04-25 12:06 -18.11218 -47.47594 29974 ft 420 kts 229°
2026-04-25 12:06 -18.13090 -47.49928 29401 ft 415 kts 229°
2026-04-25 12:07 -18.14946 -47.52243 28881 ft 412 kts 229°
2026-04-25 12:07 -18.16790 -47.54543 28358 ft 410 kts 229°
2026-04-25 12:07 -18.18622 -47.56830 27841 ft 408 kts 229°
2026-04-25 12:07 -18.20447 -47.59109 27318 ft 405 kts 229°
2026-04-25 12:08 -18.22243 -47.61353 26806 ft 399 kts 229°
2026-04-25 12:08 -18.24029 -47.63584 26283 ft 398 kts 229°
2026-04-25 12:08 -18.25810 -47.65811 25770 ft 397 kts 230°
2026-04-25 12:08 -18.27576 -47.68018 25245 ft 391 kts 230°
2026-04-25 12:09 -18.29341 -47.70186 24732 ft 387 kts 226°
2026-04-25 12:09 -18.31395 -47.71977 24181 ft 384 kts 215°
2026-04-25 12:09 -18.33646 -47.73507 23597 ft 386 kts 212°
2026-04-25 12:09 -18.35950 -47.74975 22990 ft 387 kts 211°
2026-04-25 12:10 -18.38254 -47.76417 22467 ft 384 kts 211°
2026-04-25 12:10 -18.40529 -47.77832 21960 ft 375 kts 211°
2026-04-25 12:10 -18.42766 -47.79222 21455 ft 373 kts 211°
2026-04-25 12:10 -18.44997 -47.80606 20950 ft 371 kts 211°
2026-04-25 12:11 -18.47222 -47.81987 20442 ft 370 kts 211°
2026-04-25 12:11 -18.49409 -47.83344 19941 ft 369 kts 211°
2026-04-25 12:11 -18.51619 -47.84715 19428 ft 369 kts 211°
2026-04-25 12:11 -18.53829 -47.86087 18912 ft 368 kts 210°
2026-04-25 12:12 -18.56032 -47.87456 18414 ft 367 kts 210°
2026-04-25 12:12 -18.57516 -47.88377 18027 ft 366 kts 210°
2026-04-25 12:12 -18.60413 -47.90176 17331 ft 363 kts 211°
2026-04-25 12:12 -18.62582 -47.91524 16827 ft 361 kts 211°
2026-04-25 12:13 -18.64735 -47.92862 16311 ft 358 kts 211°
2026-04-25 12:13 -18.66876 -47.94193 15818 ft 356 kts 211°
2026-04-25 12:13 -18.69000 -47.95514 15326 ft 353 kts 211°
2026-04-25 12:13 -18.71097 -47.96819 14836 ft 346 kts 211°
2026-04-25 12:14 -18.73144 -47.98093 14367 ft 337 kts 211°
2026-04-25 12:14 -18.75157 -47.99346 13894 ft 336 kts 211°
2026-04-25 12:14 -18.77169 -48.00600 13374 ft 334 kts 211°
2026-04-25 12:14 -18.79163 -48.01842 12910 ft 331 kts 211°
2026-04-25 12:15 -18.81137 -48.03072 12450 ft 328 kts 211°
2026-04-25 12:15 -18.83093 -48.04292 11991 ft 325 kts 211°
2026-04-25 12:15 -18.85038 -48.05504 11536 ft 323 kts 210°
2026-04-25 12:15 -18.86954 -48.06698 11080 ft 316 kts 210°
2026-04-25 12:16 -18.88188 -48.07467 10922 ft 305 kts 211°
2026-04-25 12:16 -18.90536 -48.08933 10628 ft 286 kts 210°
2026-04-25 12:16 -18.91656 -48.09632 10516 ft 277 kts 210°
2026-04-25 12:16 -18.93794 -48.10967 10349 ft 257 kts 210°
2026-04-25 12:17 -18.94794 -48.11592 10263 ft 246 kts 210°
2026-04-25 12:17 -18.96205 -48.12474 10189 ft 225 kts 210°
2026-04-25 12:17 -18.97507 -48.13288 9988 ft 211 kts 210°
2026-04-25 12:17 -18.98726 -48.14048 9693 ft 196 kts 210°
2026-04-25 12:18 -18.99848 -48.14750 9571 ft 180 kts 210°
2026-04-25 12:18 -19.00886 -48.15398 9461 ft 167 kts 210°
2026-04-25 12:18 -19.01856 -48.16005 9244 ft 159 kts 210°
2026-04-25 12:18 -19.02798 -48.16593 8859 ft 157 kts 210°
2026-04-25 12:19 -19.04331 -48.17551 8279 ft 151 kts 210°
2026-04-25 12:19 -19.05527 -48.18297 7779 ft 151 kts 211°
2026-04-25 12:19 -19.06436 -48.18866 7401 ft 152 kts 211°
2026-04-25 12:20 -19.07305 -48.19496 7035 ft 152 kts 221°
2026-04-25 12:20 -19.08035 -48.20303 6623 ft 153 kts 234°
2026-04-25 12:20 -19.08560 -48.21284 6224 ft 153 kts 249°
2026-04-25 12:20 -19.08832 -48.22358 6000 ft 151 kts 265°
2026-04-25 12:21 -19.08851 -48.23466 5735 ft 151 kts 278°
2026-04-25 12:21 -19.08615 -48.24535 5447 ft 149 kts 292°
2026-04-25 12:21 -19.08146 -48.25503 5204 ft 147 kts 306°
2026-04-25 12:21 -19.07502 -48.26342 4993 ft 146 kts 314°
2026-04-25 12:22 -19.06814 -48.27126 4793 ft 145 kts 315°
2026-04-25 12:22 -19.06096 -48.27875 4636 ft 145 kts 322°
2026-04-25 12:22 -19.05245 -48.28462 4614 ft 149 kts 335°
2026-04-25 12:22 -19.04261 -48.28815 4599 ft 151 kts 349°
2026-04-25 12:23 -19.03210 -48.28885 4590 ft 152 kts
2026-04-25 12:23 -19.02183 -48.28649 4583 ft 151 kts 18°
2026-04-25 12:23 -19.01201 -48.28248 4590 ft 151 kts 20°
2026-04-25 12:23 -19.00234 -48.27824 4592 ft 150 kts 21°
2026-04-25 12:24 -18.99268 -48.27397 4586 ft 150 kts 21°
2026-04-25 12:24 -18.98303 -48.26973 4697 ft 150 kts 21°
2026-04-25 12:24 -18.97337 -48.26548 4699 ft 150 kts 22°
2026-04-25 12:24 -18.96370 -48.26122 4643 ft 151 kts 21°
2026-04-25 12:25 -18.95408 -48.25697 4463 ft 149 kts 21°
2026-04-25 12:25 -18.94450 -48.25275 4262 ft 149 kts 22°
2026-04-25 12:25 -18.93492 -48.24853 4062 ft 149 kts 21°
2026-04-25 12:25 -18.92536 -48.24431 3861 ft 149 kts 22°
2026-04-25 12:26 -18.91576 -48.24007 3658 ft 150 kts 24°
2026-04-25 12:26 -18.90621 -48.23586 3441 ft 151 kts 24°
2026-04-25 12:26 -18.89648 -48.23157 3246 ft 152 kts 25°
2026-04-25 12:26 -18.88688 -48.22736 3101 ft 141 kts 23°
2026-04-25 12:27 -18.88000 -48.22434 3097 ft 63 kts 24°
2026-04-25 12:27 -18.87714 -48.22300 3103 ft 32 kts 22°
2026-04-25 12:27 -18.87564 -48.22231 3100 ft 21 kts 25°
2026-04-25 12:27 -18.87513 -48.22202 3103 ft 1 kts 342°
2026-04-25 12:28 -18.87519 -48.22223 3105 ft 7 kts 218°
2026-04-25 12:28 -18.87599 -48.22257 3105 ft 16 kts 202°
2026-04-25 12:28 -18.87715 -48.22307 3102 ft 21 kts 202°
2026-04-25 12:28 -18.87852 -48.22366 3098 ft 22 kts 202°
2026-04-25 12:29 -18.87992 -48.22428 3103 ft 22 kts 205°
2026-04-25 12:29 -18.88130 -48.22494 3096 ft 22 kts 201°
2026-04-25 12:29 -18.88270 -48.22552 3098 ft 21 kts 201°
2026-04-25 12:29 -18.88403 -48.22611 3100 ft 20 kts 204°
2026-04-25 12:30 -18.88531 -48.22671 3097 ft 20 kts 203°
2026-04-25 12:30 -18.88661 -48.22723 3099 ft 20 kts 203°
2026-04-25 12:30 -18.88789 -48.22781 3099 ft 21 kts 203°
2026-04-25 12:30 -18.88924 -48.22841 3093 ft 22 kts 202°
2026-04-25 12:31 -18.89043 -48.22900 3097 ft 13 kts 229°
2026-04-25 12:31 -18.89039 -48.22968 3098 ft 0 kts 295°
2026-04-25 12:33 -18.89034 -48.22978 3095 ft 2 kts 295°
2026-04-25 12:33 -18.89014 -48.22993 3095 ft 8 kts 351°
2026-04-25 12:33 -18.88973 -48.22992 3098 ft 3 kts 332°
2026-04-25 12:33 -18.88959 -48.23014 3096 ft 0 kts 292°